Simultaneous Nadir Overpasses (SNOs) Predictions

Prediction of SNOs between GOES-17 and METOP-C Satellite Orbit:

Table of predicted SNOs for the next 14.0 days since TLE Epoch: 2/11/2023
Index Date Time (GOES-17) GOES-17 Lat,Lon METOP-C Lat,Lon Distance(km) Time Diff (sec)
1 02/12/2023 04:22:10 -0.00,-102.63 -0.10,-103.21 65.31 80
2 02/13/2023 04:04:08 -0.00,-101.85 0.81, -98.17 419.32 80
3 02/14/2023 16:20:15 0.01,-100.70 0.42,-102.68 225.67 80
4 02/15/2023 16:02:13 0.01, -99.92 -0.50, -97.65 258.64 80
5 02/17/2023 04:18:30 -0.01, -98.68 -0.77,-102.19 399.10 80
6 02/18/2023 04:00:27 -0.01, -97.90 0.16, -97.16 85.22 80
7 02/20/2023 15:55:52 0.01, -95.97 0.14, -96.63 74.90 80
8 02/21/2023 15:37:50 0.00, -95.19 -0.80, -91.60 409.96 80
9 02/23/2023 03:54:06 -0.01, -93.97 -0.49, -96.14 246.36 80
10 02/24/2023 03:36:04 -0.01, -93.20 0.46, -91.10 238.88 80
